Location: Altamira
(10.5079°N, 66.8544°W)
Time: 16:27:18
(UTC+00:00)

YAOGAN 1 - Pass Details

Date: 13 December 2025
Orbit: 605 x 607 km, 97.8° (Epoch: 14 January)

Event Time Altitude Azimuth Distance (km) Brightness Sun altitude
Rises 23:36:37 0° 180° (S) 2,854 6.2 -21.2°
Reaches altitude 10° 23:38:51 10° 187° (S) 1,950 5.4 -21.7°
Maximum altitude 23:42:53 44° 259° (W) 839 3.6 -22.6°
Drops below altitude 10° 23:46:56 10° 332° (NNW) 1,950 5.2 -23.5°
Sets 23:49:11 0° 339° (NNW) 2,852 6.0 -24.1°
